Overview Statistics Trail Chart Weather Telemetry Raw packets
 

This is the latest recevied weather packets stored in our database for station/object KC5TIL. If no packets are shown the sender has not sent any weather packets the latest 10 day(s).

<< 101 102 103 104 105 106 107 >>
Time Temp. Humidity Pressure Rain* Wind** Luminosity Snow
1787847036 35.56° C 50% 1016.8 hPa 0 mm - 735 W/m² -
1787846730 35° C 52% 1016.7 hPa 0 mm - 698 W/m² -
1787846426 35° C 51% 1016.8 hPa 0 mm - 686 W/m² -
1787846121 34.44° C 54% 1016.6 hPa 0 mm - 648 W/m² -
1787845816 34.44° C 54% 1016.9 hPa 0 mm - 625 W/m² -
1787845512 34.44° C 54% 1016.7 hPa 0 mm - 596 W/m² -
1787845207 33.89° C 55% 1016.9 hPa 0 mm - 610 W/m² -
1787844911 34.44° C 55% 1016.7 hPa 0 mm - 576 W/m² -
1787844602 33.89° C 56% 1016.4 hPa 0 mm - 574 W/m² -
1787844298 33.89° C 57% 1016.6 hPa 0 mm - 516 W/m² -
1787843996 33.89° C 58% 1016.6 hPa 0 mm - 558 W/m² -
1787843692 33.89° C 58% 1016.5 hPa 0 mm - 516 W/m² -
1787843387 33.89° C 58% 1016.5 hPa 0 mm - 467 W/m² -
1787843084 33.33° C 62% 1016.3 hPa 0 mm - 373 W/m² -
1787842777 32.78° C 61% 1016.4 hPa 0 mm - 455 W/m² -
1787842472 32.78° C 62% 1016.3 hPa 0 mm - 400 W/m² -
1787842167 32.22° C 63% 1016.1 hPa 0 mm - 328 W/m² -
1787841867 32.22° C 62% 1016.5 hPa 0 mm - 324 W/m² -
1787841564 31.67° C 66% 1016.4 hPa 0 mm - 319 W/m² -
1787841262 31.67° C 66% 1016.4 hPa 0 mm - 306 W/m² -
1787840957 31.67° C 66% 1016.4 hPa 0 mm - 298 W/m² -
1787840653 32.22° C 65% 1016.3 hPa 0 mm - 267 W/m² -
1787840348 31.67° C 68% 1016.4 hPa 0 mm - 252 W/m² -
1787840048 31.67° C 66% 1016.4 hPa 0 mm - 241 W/m² -
1787839743 31.67° C 65% 1016.3 hPa 0 mm - 207 W/m² -

* Rain latest hour (hover to see other rain measurements)
** Current wind speed in m/s (hover to see current wind gust speed)